Volver al catálogo

PSLV R/B

ActivoHEO
NORAD 41242·ROCKET BODY·🇮🇳 India

Lanzado Jan 20, 2016 desde Satish Dhawan Space Centre

Loading…

Próximos Pases (próximas 24 horas)

TLE

ActualizadoSource: Space-Track

Época: Sep 14, 2026, 07:25 UTC

1 41242U 16003B   26257.30965262  .00001440  00000-0  60303-3 0  9992
2 41242  19.1423   0.3188 5970266 275.8740  23.1443  4.04539250154349

Sigue PSLV R/B en tiempo real con AllMySat

Download on the App Store